Location: Dunedin
(45.8670°S, 170.5000°E)
Time: 04:26:11
(UTC+13:00)

Terra - Pass Details

Date: 24 January 2019
Orbit: 701 x 703 km, 98.2° (Epoch: 22 February)

Event Time Altitude Azimuth Distance (km) Brightness Sun altitude
Rises 23:10:28 0° 149° (SSE) 3,133 5.4 -15.6°
Reaches altitude 10° 23:13:47 10° 125° (SE) 2,203 4.3 -15.9°
Maximum altitude 23:16:27 15° 91° (E) 1,893 3.7 -16.2°
Enters shadow 23:16:48 15° 86° (E) 1,897 3.7 -16.2°
